SQ5VCO-13 Weather Reports


time (UTC)temp
C
wind
direction
speed
KPH
gust
KPH
rain 1hr
cm
rain 24hr
cm
rain mn
cm
humidity
%
barometer
mb
20260507034215 12 0 0.0 0.0 0.00 0.03 0.03 86 1006.0
20260507033504 12 0 0.0 0.0 0.00 0.03 0.03 86 1006.0
20260507033004 12 0 0.0 0.0 0.00 0.03 0.03 86 1006.1
20260507032504 12 0 0.0 0.0 0.00 0.03 0.03 86 1005.9
20260507032003 12 0 0.0 0.0 0.03 0.03 0.03 86 1006.0
20260507031715 12 0 0.0 0.0 0.03 0.03 0.03 82 1006.3
20260507031003 12 0 0.0 0.0 0.03 0.03 0.03 82 1005.8
20260507030504 12 0 0.0 0.0 0.03 0.03 0.03 82 1005.8
20260507030004 12 0 0.0 0.0 0.03 0.03 0.03 81 1005.6
20260507025504 12 0 0.0 0.0 0.03 0.03 0.03 81 1005.8
20260507025215 12 0 0.0 0.0 0.03 0.03 0.03 81 1006.1
20260507024503 13 0 0.0 0.0 0.03 0.03 0.03 81 1006.2
20260507024216 13 0 0.0 0.0 0.03 0.03 0.03 81 1006.1
20260507023503 13 0 0.0 0.0 0.03 0.03 0.03 81 1006.2
20260507023005 13 0 0.0 0.0 0.03 0.03 0.03 80 1006.0
20260507022504 13 0 0.0 0.0 0.03 0.03 0.03 80 1006.0
20260507022004 13 0 0.0 0.0 0.00 0.00 0.00 80 1006.0
20260507021504 13 0 0.0 0.0 0.00 0.00 0.00 80 1006.0
20260507021214 13 0 0.0 0.0 0.00 0.00 0.00 79 1006.2
20260507020504 13 0 0.0 0.0 0.00 0.00 0.00 77 1006.4
20260507020215 13 0 0.0 0.0 0.00 0.00 0.00 77 1006.2
20260507015504 13 0 0.0 0.0 0.00 0.00 0.00 76 1006.6
20260507015004 13 0 0.0 0.0 0.00 0.00 0.00 76 1006.6
20260507014503 13 0 0.0 0.0 0.00 0.00 0.00 76 1006.7
20260507014003 12 0 0.0 0.0 0.00 0.00 0.00 75 1006.9
20260507013504 12 0 0.0 0.0 0.00 0.00 0.00 75 1006.8
20260507013004 12 0 0.0 0.0 0.00 0.00 0.00 75 1006.4
20260507012503 13 0 0.0 0.0 0.00 0.00 0.00 75 1006.3
20260507012004 13 0 0.0 0.0 0.00 0.00 0.00 76 1006.2
20260507011503 13 0 0.0 0.0 0.00 0.00 0.00 77 1006.1
20260507011004 13 0 0.0 0.0 0.00 0.00 0.00 78 1006.1
20260507010503 13 0 0.0 0.0 0.00 0.00 0.00 80 1006.1
20260507010004 12 0 0.0 0.0 0.00 0.00 0.00 81 1006.0
20260507005504 12 0 0.0 0.0 0.00 0.00 0.00 81 1006.2
20260507005004 12 0 0.0 0.0 0.00 0.00 0.00 84 1006.0
20260507004714 12 0 0.0 0.0 0.00 0.00 0.00 84 1006.3
20260507004004 11 0 0.0 0.0 0.00 0.00 0.00 83 1007.0
20260507003503 11 0 0.0 0.0 0.00 0.00 0.00 82 1006.1
20260507003213 11 0 0.0 0.0 0.00 0.00 0.00 82 1005.7
20260507002503 11 0 0.0 0.0 0.00 0.00 0.00 82 1005.7
20260507002003 11 0 0.0 0.0 0.00 0.00 0.00 82 1005.6
20260507001717 11 0 0.0 0.0 0.00 0.00 0.00 82 1005.6
20260507001004 11 0 0.0 0.0 0.00 0.00 0.00 81 1005.4
20260507000713 11 0 0.0 0.0 0.00 0.00 0.00 81 1005.5
20260507000004 11 0 0.0 0.0 0.00 0.00 0.00 81 1005.6
20260506235504 11 0 0.0 0.0 0.00 0.00 0.00 81 1005.5
20260506235003 11 0 0.0 0.0 0.00 0.00 0.00 81 1005.7
20260506234715 11 0 0.0 0.0 0.00 0.00 0.00 81 1005.6
20260506234003 11 0 0.0 0.0 0.00 0.00 0.00 81 1005.7
20260506233504 11 0 0.0 0.0 0.00 0.00 0.00 81 1005.7
20260506233004 11 0 0.0 0.0 0.00 0.00 0.00 81 1005.9
20260506232504 11 0 0.0 0.0 0.00 0.00 0.00 81 1005.7
20260506232004 11 0 0.0 0.0 0.00 0.00 0.00 81 1005.7
20260506231503 11 0 0.0 0.0 0.00 0.00 0.00 80 1005.7
20260506231216 11 0 0.0 0.0 0.00 0.00 0.00 80 1005.6
20260506230504 11 0 0.0 0.0 0.00 0.00 0.00 80 1005.6
20260506230004 11 0 0.0 0.0 0.00 0.00 0.00 79 1005.7
20260506225503 11 0 0.0 0.0 0.00 0.00 0.00 79 1005.9
20260506225004 11 0 0.0 0.0 0.00 0.00 0.00 79 1005.7
20260506224503 11 0 0.0 0.0 0.00 0.00 0.00 78 1005.7
20260506224003 11 0 0.0 0.0 0.00 0.00 0.00 78 1005.7
20260506223503 11 0 0.0 0.0 0.00 0.00 0.00 78 1005.7
20260506223004 11 0 0.0 0.0 0.00 0.00 0.00 78 1005.7
20260506222504 11 0 0.0 0.0 0.00 0.00 0.00 77 1005.6
20260506222004 11 0 0.0 0.0 0.00 0.00 0.00 77 1005.8
20260506221504 11 0 0.0 0.0 0.00 0.00 0.00 77 1005.7
20260506221004 11 0 0.0 0.0 0.00 0.00 0.00 76 1005.3
20260506220714 11 0 0.0 0.0 0.00 0.00 0.00 76 1005.5
20260506220003 11 0 0.0 0.0 0.00 0.00 0.00 75 1005.4
20260506215503 11 0 0.0 0.0 0.00 0.00 0.00 75 1005.5
20260506215006 11 0 0.0 0.0 0.00 0.00 0.00 74 1005.7
20260506214716 11 0 0.0 0.0 0.00 0.00 0.00 74 1005.3
20260506214004 11 0 0.0 0.0 0.00 0.00 0.00 73 1005.5
20260506213503 12 0 0.0 0.0 0.00 0.00 0.00 73 1005.7
20260506213004 12 0 0.0 0.0 0.00 0.00 0.00 73 1005.7
20260506212713 12 0 0.0 0.0 0.00 0.00 0.00 73 1005.6
20260506212004 12 0 0.0 0.0 0.00 0.00 0.00 73 1005.8
20260506211504 12 0 0.0 0.0 0.00 0.00 0.00 72 1005.7
20260506211217 12 0 0.0 0.0 0.00 0.00 0.00 72 1005.8
20260506210504 12 0 0.0 0.0 0.00 0.00 0.00 70 1005.9
20260506210218 12 0 0.0 0.0 0.00 0.00 0.00 70 1005.9
20260506205505 12 0 0.0 0.0 0.00 0.00 0.00 69 1005.9
20260506205003 12 0 0.0 0.0 0.00 0.00 0.00 68 1005.9
20260506204717 12 0 0.0 0.0 0.00 0.00 0.00 68 1005.8
20260506204003 13 0 0.0 0.0 0.00 0.00 0.00 68 1005.9
20260506203503 13 0 0.0 0.0 0.00 0.00 0.00 67 1006.0
20260506203004 13 0 0.0 0.0 0.00 0.00 0.00 67 1005.8
20260506202713 13 0 0.0 0.0 0.00 0.00 0.00 66 1005.9
20260506202004 13 0 0.0 0.0 0.00 0.00 0.00 65 1005.7
20260506201714 13 0 0.0 0.0 0.00 0.00 0.00 65 1005.9
20260506201003 13 0 0.0 0.0 0.00 0.00 0.00 64 1005.8
20260506200503 13 0 0.0 0.0 0.00 0.00 0.00 63 1005.8
20260506200215 13 0 0.0 0.0 0.00 0.00 0.00 63 1005.8
20260506195503 14 0 0.0 0.0 0.00 0.00 0.00 63 1005.9
20260506195005 14 0 0.0 0.0 0.00 0.00 0.00 62 1005.9
20260506194718 14 0 0.0 0.0 0.00 0.00 0.00 62 1005.7
20260506194004 15 0 0.0 0.0 0.00 0.00 0.00 62 1005.8
20260506193504 15 0 0.0 0.0 0.00 0.00 0.00 61 1005.6
20260506193004 15 0 0.0 0.0 0.00 0.00 0.00 61 1005.6
20260506192504 15 0 0.0 0.0 0.00 0.00 0.00 60 1005.9
20260506192003 15 0 0.0 0.0 0.00 0.00 0.00 60 1005.9
20260506191503 16 0 0.0 0.0 0.00 0.00 0.00 60 1005.9
20260506191213 16 0 0.0 0.0 0.00 0.00 0.00 60 1005.7
20260506190505 16 0 0.0 0.0 0.00 0.00 0.00 59 1005.5
20260506190005 16 0 0.0 0.0 0.00 0.00 0.00 58 1005.7
20260506185504 17 0 0.0 0.0 0.00 0.00 0.00 57 1005.7
20260506185004 17 0 0.0 0.0 0.00 0.00 0.00 57 1005.6
20260506184503 17 0 0.0 0.0 0.00 0.00 0.00 52 1005.8
20260506184003 17 0 0.0 0.0 0.00 0.00 0.00 51 1005.7
20260506183714 17 0 0.0 0.0 0.00 0.00 0.00 51 1005.8
20260506183005 18 0 0.0 0.0 0.00 0.00 0.00 50 1005.5
20260506182715 18 0 0.0 0.0 0.00 0.00 0.00 50 1005.7
20260506182218 18 0 0.0 0.0 0.00 0.00 0.00 50 1005.6
20260506181716 19 0 0.0 0.0 0.00 0.00 0.00 49 1005.5
20260506181003 19 0 0.0 0.0 0.00 0.00 0.00 48 1005.4
20260506180503 20 0 0.0 0.0 0.00 0.00 0.00 46 1005.6
20260506180004 20 0 0.0 0.0 0.00 0.00 0.00 46 1005.4
20260506175504 20 0 0.0 0.0 0.00 0.00 0.00 45 1005.5
20260506175216 20 0 0.0 0.0 0.00 0.00 0.00 45 1005.6
20260506174504 21 0 0.0 0.0 0.00 0.00 0.00 44 1005.5
20260506174004 21 0 0.0 0.0 0.00 0.00 0.00 44 1005.2
20260506173503 21 0 0.0 0.0 0.00 0.00 0.00 43 1005.5
20260506173005 22 0 0.0 0.0 0.00 0.00 0.00 43 1005.3
20260506172503 22 0 0.0 0.0 0.00 0.00 0.00 43 1005.3
20260506172004 22 0 0.0 0.0 0.00 0.00 0.00 43 1005.3
20260506171504 22 0 0.0 0.0 0.00 0.00 0.00 42 1005.1
20260506171214 22 0 0.0 0.0 0.00 0.00 0.00 40 1005.4
20260506170503 22 0 0.0 0.0 0.00 0.00 0.00 40 1005.3
20260506170004 22 0 0.0 0.0 0.00 0.00 0.00 40 1005.3
20260506165503 22 0 0.0 0.0 0.00 0.00 0.00 40 1005.5
20260506165003 23 0 0.0 0.0 0.00 0.00 0.00 39 1005.2
20260506164504 23 0 0.0 0.0 0.00 0.00 0.00 38 1005.3
20260506164004 23 0 0.0 0.0 0.00 0.00 0.00 38 1005.4
20260506163503 23 0 0.0 0.0 0.00 0.00 0.00 37 1005.2
20260506163004 23 0 0.0 0.0 0.00 0.00 0.00 36 1005.2
20260506162503 24 0 0.0 0.0 0.00 0.00 0.00 36 1005.0
20260506162214 24 0 0.0 0.0 0.00 0.00 0.00 36 1005.1
20260506161504 25 0 0.0 0.0 0.00 0.00 0.00 36 1005.1
20260506161004 25 0 0.0 0.0 0.00 0.00 0.00 36 1004.9
20260506160504 25 0 0.0 0.0 0.00 0.00 0.00 36 1005.0
20260506160004 25 0 0.0 0.0 0.00 0.00 0.00 36 1005.1
20260506155504 25 0 0.0 0.0 0.00 0.00 0.00 36 1005.1
20260506155004 25 0 0.0 0.0 0.00 0.00 0.00 36 1005.1
20260506154503 25 0 0.0 0.0 0.00 0.00 0.00 35 1005.0
20260506154005 25 0 0.0 0.0 0.00 0.00 0.00 34 1005.1
20260506153504 25 0 0.0 0.0 0.00 0.00 0.00 35 1005.1
20260506153004 26 0 0.0 0.0 0.00 0.00 0.00 34 1005.1
20260506152717 26 0 0.0 0.0 0.00 0.00 0.00 34 1005.0
20260506152004 26 0 0.0 0.0 0.00 0.00 0.00 34 1005.0
20260506151503 26 0 0.0 0.0 0.00 0.00 0.00 34 1005.1
20260506151003 26 0 0.0 0.0 0.00 0.00 0.00 36 1004.7
20260506150713 26 0 0.0 0.0 0.00 0.00 0.00 35 1005.1
20260506150005 25 0 0.0 0.0 0.00 0.00 0.00 37 1004.9
20260506145504 25 0 0.0 0.0 0.00 0.00 0.00 36 1005.0
20260506145004 25 189 1.6 9.7 0.00 0.00 0.00 35 1005.0
20260506144504 26 194 1.6 9.7 0.00 0.00 0.00 33 1005.0
20260506144004 26 225 0.0 6.4 0.00 0.00 0.00 33 1005.1
20260506143716 27 0 0.0 0.0 0.00 0.00 0.00 34 1005.1
20260506143004 27 0 0.0 0.0 0.00 0.00 0.00 33 1005.1
20260506142717 26 0 0.0 0.0 0.00 0.00 0.00 33 1004.9
20260506142004 26 225 0.0 9.7 0.00 0.00 0.00 34 1004.9
20260506141713 26 225 0.0 9.7 0.00 0.00 0.00 34 1005.0
20260506141004 26 0 0.0 0.0 0.00 0.00 0.00 35 1004.8
20260506140503 26 0 0.0 0.0 0.00 0.00 0.00 34 1004.8
20260506140004 26 0 0.0 0.0 0.00 0.00 0.00 34 1004.9
20260506135503 25 247 0.0 1.6 0.00 0.00 0.00 34 1004.7
20260506135003 26 247 0.0 1.6 0.00 0.00 0.00 33 1004.7
20260506134504 26 0 0.0 0.0 0.00 0.00 0.00 33 1004.6
20260506134004 26 225 0.0 3.2 0.00 0.00 0.00 33 1004.7
20260506133504 25 232 1.6 6.4 0.00 0.00 0.00 35 1004.5
20260506133004 25 235 1.6 6.4 0.00 0.00 0.00 35 1004.8
20260506132503 25 0 0.0 0.0 0.00 0.00 0.00 34 1004.7
20260506132003 25 247 1.6 9.7 0.00 0.00 0.00 33 1004.6
20260506131503 25 247 1.6 9.7 0.00 0.00 0.00 33 1004.7
20260506131004 25 0 0.0 0.0 0.00 0.00 0.00 33 1004.5
20260506130504 25 255 1.6 9.7 0.00 0.00 0.00 32 1004.5
20260506130005 26 255 1.6 9.7 0.00 0.00 0.00 32 1004.6
20260506125503 26 225 0.0 1.6 0.00 0.00 0.00 31 1004.7
20260506125003 26 196 0.0 1.6 0.00 0.00 0.00 31 1004.3
20260506124503 26 180 0.0 1.6 0.00 0.00 0.00 31 1004.5
20260506124004 26 0 0.0 0.0 0.00 0.00 0.00 32 1004.4
20260506123504 25 0 0.0 0.0 0.00 0.00 0.00 32 1004.6
20260506123004 25 0 0.0 0.0 0.00 0.00 0.00 31 1004.7
20260506122503 25 197 0.0 3.2 0.00 0.00 0.00 31 1004.7
20260506122003 25 209 1.6 8.0 0.00 0.00 0.00 31 1004.7
20260506121715 26 242 3.2 16.1 0.00 0.00 0.00 31 1004.5
20260506121003 26 270 1.6 16.1 0.00 0.00 0.00 30 1004.5
20260506120504 26 225 0.0 1.6 0.00 0.00 0.00 30 1004.4
20260506120213 26 242 1.6 9.7 0.00 0.00 0.00 30 1004.5
20260506115504 26 235 3.2 9.7 0.00 0.00 0.00 29 1004.5
20260506115214 26 225 1.6 9.7 0.00 0.00 0.00 29 1004.2
20260506114717 26 0 0.0 0.0 0.00 0.00 0.00 30 1004.4
20260506114004 26 0 0.0 0.0 0.00 0.00 0.00 29 1004.1
20260506113713 27 0 0.0 0.0 0.00 0.00 0.00 29 1004.4
20260506113003 27 233 0.0 3.2 0.00 0.00 0.00 23 1004.3
20260506112503 28 212 1.6 6.4 0.00 0.00 0.00 23 1004.3
20260506112217 28 212 1.6 6.4 0.00 0.00 0.00 23 1004.3
20260506111715 28 215 0.0 1.6 0.00 0.00 0.00 23 1004.1
20260506111004 28 215 0.0 1.6 0.00 0.00 0.00 23 1004.1
20260506110504 28 0 0.0 0.0 0.00 0.00 0.00 25 1004.3
20260506110214 27 225 1.6 9.7 0.00 0.00 0.00 25 1004.4
20260506105504 27 219 1.6 9.7 0.00 0.00 0.00 30 1004.3
20260506105215 27 212 1.6 9.7 0.00 0.00 0.00 30 1004.4
20260506104504 26 0 0.0 0.0 0.00 0.00 0.00 31 1004.5
20260506104003 26 0 0.0 0.0 0.00 0.00 0.00 33 1004.4
20260506103714 26 0 0.0 0.0 0.00 0.00 0.00 33 1004.6
20260506103004 26 0 0.0 0.0 0.00 0.00 0.00 33 1004.8
20260506102504 26 0 0.0 0.0 0.00 0.00 0.00 33 1004.5
20260506102004 26 0 0.0 0.0 0.00 0.00 0.00 33 1004.7
20260506101503 26 0 0.0 0.0 0.00 0.00 0.00 32 1004.6
20260506101214 26 0 0.0 0.0 0.00 0.00 0.00 32 1004.7
20260506100503 26 0 0.0 0.0 0.00 0.00 0.00 33 1004.6
20260506100004 26 0 0.0 0.0 0.00 0.00 0.00 33 1004.7
20260506095504 26 0 0.0 0.0 0.00 0.00 0.00 35 1004.7
20260506095004 26 0 0.0 0.0 0.00 0.00 0.00 35 1004.6
20260506094504 26 0 0.0 0.0 0.00 0.00 0.00 38 1004.8
20260506094004 25 0 0.0 0.0 0.00 0.00 0.00 40 1004.8
20260506093715 25 0 0.0 0.0 0.00 0.00 0.00 40 1004.9
20260506093004 24 0 0.0 0.0 0.00 0.00 0.00 40 1004.9